VTBUVVNB

Guest
Details From VTBU - Rayon U-taphao Intl
To VVNB - Hanoi Noibai Intl
Flight Number -
Tags Generated
Created
Modified
Stats Distance 581 nm / 1,076 km
Max Altitude 0 ft / 0 m
Waypoints 3
Social Downloads 1
Likes 0
Share VATSIM

Download

Looking for another format? Having issues loading an existing format? Contact us
Advertisement - Login to hide

Notes

Generated

Route

VTBU R2150 VVNB

ID Type Via Altitude Latitude Longitude Leg Dist Tot Dist Heading (true) Name
O VTBU APT - 0 ft / 0 m 12.69583˚ 101.00635˚ - 0 nm - -
R2150 FIX - 0 ft / 0 m 21.22489˚ 105.78623˚ 581 nm 581 nm 28° / 29° -
O VVNB APT - 0 ft / 0 m 21.22489˚ 105.78623˚ 0 nm 581 nm 0° / 180° -

Altitude Profile

Advertisement - Login to hide

Weather


0- 5 10 15 20 25 30 35+ Temperature / ° C

Clouds and Precipitation
Forecast for 2018-05-25 06:00 UTC. Updated 4 hours ago

Ground ~20,000 ft ~40,000 ft Winds

VTBU

Details ICAO VTBU (UTP)
Name Rayon U-Taphao Intl
Region Thailand
Timezone Asia/Bangkok (UTC+7.0)
Stats Elevation 59 ft / 18 m (AMSL)
Location 12.679954° 101.005033°
Runways 1
Magnetic Variation 0.517° W

METAR

VTBU 250900Z 18008KT 9999 FEW020CB 31/22 Q1006 NOSIG

Decode

TAF

TAF VTBU 250500Z 2506/2606 21008KT 9999 FEW020 TEMPO 2507/2512 FEW020CB BECMG 2512/2514 23004KT 8000

Decode

Departure Runways

ID Width Length Bearing (true) Bearing (mag) Surface Threshold Offset Overrun Length
18 197 ft / 60 m 11,627 ft / 3,544 m 184.62° 185.14° Asphalt 0 ft / 0 m 1,000 ft / 305 m
36 197 ft / 60 m 11,627 ft / 3,544 m 4.62° 5.14° Asphalt 0 ft / 0 m 1,000 ft / 305 m

VVNB

Details ICAO VVNB (HAN)
Name Hanoi Noibai Intl
Region Vietnam
Timezone Asia/Ho_Chi_Minh (UTC+7.0)
Stats Elevation 39 ft / 12 m (AMSL)
Location 21.219739° 105.803774°
Runways 2
Magnetic Variation 1.490° W

METAR

VVNB 250900Z 17004KT 080V220 9999 FEW035 35/24 Q1001 NOSIG

Decode

TAF

TAF VVNB 250500Z 2506/2606 18006KT 9999 SCT025

Decode

Destination Runways

ID Width Length Bearing (true) Bearing (mag) Surface Threshold Offset Overrun Length
11L 148 ft / 45 m 12,454 ft / 3,796 m 107.24° 108.73° Concrete 0 ft / 0 m 0 ft / 0 m
11R 148 ft / 45 m 12,456 ft / 3,797 m 107.22° 108.71° Concrete 0 ft / 0 m 325 ft / 99 m
29L 148 ft / 45 m 12,456 ft / 3,797 m 287.23° 288.72° Concrete 0 ft / 0 m 325 ft / 99 m
29R 148 ft / 45 m 12,454 ft / 3,796 m 287.25° 288.74° Concrete 0 ft / 0 m 868 ft / 265 m

Approach Navaids

Runway Type Ident Frequency Range Bearing (true) Bearing (mag) Slope Elevation
11L Localiser NB 110.50 MHz 18 nm / 33 km 104.05° 105.54° - 39 ft / 12 m (AMSL)
11L Glidescope NB 110.50 MHz 10 nm / 19 km 107.25° 108.74° 3.00° 39 ft / 12 m (AMSL)
11L DME NB 110.50 MHz 18 nm / 33 km - - - 39 ft / 12 m (AMSL)

Popular Alternatives